[[{"header":{"parameterUnit":"m.s-1","parameterCategory":1,"la1":30.2991,"la2":30.254,"lo1":-89.0895,"lo2":-89.0444,"dy":0.0017,"dx":0.0017,"nx":28,"ny":28,"refTime":"2025-04-16T09:00:00:Z","depth":0,"parameterNumber":2,"parameterNumberName":"U-component_of_WINDS"},"data":[0,0,0,0,0,0,0,0,0,0,0,0,0,0,0,0,0,0,0,0,0,0,0,0,0,0,0,0,0,0,0,0,0,0,0,0,0,0,0,0,0,0,0,0,0,0,0,0,0,0,0,0,0,0,0,0,0,0,-4.0812,-4.0811,0,-4.0753,-4.0752,-4.0752,-4.06,-4.0596,-4.0593,-4.059,-4.0534,-4.0536,-4.0537,0,0,0,0,0,0,0,0,0,0,0,0,0,-4.0798,-4.0799,-4.0812,-4.0811,-4.081,-4.0753,-4.0752,-4.0751,-4.06,-4.0596,-4.0592,-4.0589,-4.0534,-4.0535,-4.0537,0,0,0,0,0,0,0,0,0,0,0,0,0,-4.0779,-4.08,-4.0812,-4.0728,-4.072,-4.0753,-4.0752,-4.0751,-4.0601,-4.0596,-4.0591,-4.0587,-4.0533,-4.0535,-4.0538,-4.0649,0,0,-4.0545,-4.0546,0,0,0,0,0,0,0,0,-4.078,-4.0779,-4.0741,-4.0734,-4.0725,-4.0678,-4.0727,-4.0717,-4.0602,-4.0646,-4.059,-4.0584,-4.0586,-4.0584,-4.0584,-4.0646,-4.0644,-4.0545,-4.0546,-4.0547,-4.0548,0,0,0,0,0,0,0,-4.0781,-4.0781,-4.0789,-4.0741,-4.0731,-4.0695,-4.0687,-4.0724,-4.0645,-4.0642,-4.0631,-4.0626,-4.0581,-4.0582,-4.0581,-4.0643,-4.0545,-4.0547,-4.0548,-4.0549,-4.0797,-4.0802,0,0,0,0,0,0,-4.0794,-4.0783,-4.079,-4.0787,-4.0741,-4.0699,-4.069,-4.0698,-4.0644,-4.0631,-4.063,-4.0619,-4.058,-4.0579,-4.0579,-4.0707,-4.0547,-4.0549,-4.0551,-4.0792,-4.0798,-4.0803,0,0,0,0,0,0,-4.0794,-4.0796,-4.0793,-4.0782,-4.0779,-4.0704,-4.0715,-4.07,-4.07,-4.0634,-4.062,-4.0645,-4.0577,-4.0576,-4.0633,-4.0703,-4.055,-4.0552,-4.0785,-4.0793,-4.0801,-4.0964,0,0,0,0,0,0,-4.0795,-4.0797,-4.0838,-4.0784,-4.078,-4.0847,-4.0719,-4.0702,-4.0704,-4.0689,-4.0645,-4.0633,-4.0573,-4.063,-4.0635,-4.0703,-4.0554,-4.0779,-4.0789,-4.0798,-4.0952,-4.0977,-4.0997,0,0,0,0,0,-4.0795,-4.0886,-4.084,-4.0842,-4.0828,-4.0851,-4.0849,-4.0776,-4.071,-4.0751,-4.0709,-4.0634,-4.0695,-4.0637,-4.0642,-4.0712,-4.0774,-4.0786,-4.0797,-4.0942,-4.0972,-4.0997,0,0,0,0,0,0,-4.0951,-4.0878,-4.0826,-4.0902,-4.0884,-4.0825,-4.0874,-4.081,-4.0811,-4.0797,-4.0708,-4.07,-4.077,-4.0746,-4.0684,-4.0818,-4.0722,-4.0735,-4.0831,-4.0858,-4.0881,-4.0885,-4.0556,0,0,0,0,0,-4.0994,-4.1018,-4.0953,-4.1027,-4.102,-4.095,-4.0957,-4.0902,-4.088,-4.0872,-4.0834,-4.0817,-4.0832,-4.0844,-4.0853,-4.0948,-4.0937,-4.0998,-4.1021,-4.104,-4.1053,-4.1103,-4.113,-4.0842,-4.0842,-4.0842,0,0,-4.1084,-4.1047,-4.1067,-4.1057,-4.1036,-4.1064,-4.0944,-4.0978,-4.0998,-4.0877,-4.0929,-4.0901,-4.0876,-4.0953,-4.0985,-4.0936,-4.113,-4.1055,-4.107,-4.1073,-4.1118,-4.1145,-4.1169,-4.085,-4.0848,-4.0847,0,0,-4.1262,-4.1236,-4.1295,-4.1277,-4.1247,-4.12,-4.1215,-4.1166,-4.1143,-4.1193,-4.1104,-4.1127,-4.1155,-4.1141,-4.1138,-4.1313,-4.1245,-4.1319,-4.1438,-4.1488,-4.151,-4.153,-4.1595,-4.1618,-4.1332,-4.1332,-4.1333,0,-4.1378,-4.1415,-4.1334,-4.1374,-4.1374,-4.1265,-4.1326,-4.1313,-4.1289,-4.1292,-4.1236,-4.1269,-4.1245,-4.1318,-4.1361,-4.1361,-4.1377,-4.1324,-4.1513,-4.1532,-4.155,-4.161,-4.1634,-4.1342,-4.134,-4.134,-4.1339,0,-4.156,-4.1587,-4.1639,-4.1617,-4.1622,-4.1673,-4.1602,-4.1617,-4.1563,-4.1523,-4.1577,-4.1544,-4.1546,-4.1559,-4.1507,-4.1626,-4.1597,-4.1529,-4.1431,-4.1588,-4.1643,-4.1665,-4.1355,-4.1352,-4.1349,-4.1346,0,0,-4.1834,-4.1768,-4.1789,-4.1779,-4.1739,-4.1759,-4.1806,-4.1807,-4.1823,-4.181,-4.1848,-4.1875,-4.1812,-4.1809,-4.1754,-4.1798,-4.1942,-4.1725,-4.1723,-4.1768,-4.2073,-4.2126,-4.2154,-4.1896,-4.19,-4.1903,-4.2076,0,-4.2003,-4.2077,-4.2007,-4.2096,-4.2122,-4.202,-4.2061,-4.2042,-4.2006,-4.2024,-4.1984,-4.2005,-4.1919,-4.1917,-4.1956,-4.1916,-4.2002,-4.1903,-4.1933,-4.1935,-4.1943,-4.2182,-4.2237,-4.2401,-4.2097,-4.21,-4.2103,0,-4.2209,-4.2206,-4.2298,-4.2253,-4.2261,-4.2299,-4.2296,-4.2313,-4.2291,-4.2262,-4.2259,-4.2193,-4.2238,-4.2142,-4.2204,-4.2138,-4.2146,-4.2129,-4.2134,-4.2135,-4.2029,-4.2191,-4.2451,-4.2477,-4.2136,-4.2133,-4.2131,0,-4.2402,-4.2421,-4.2478,-4.2472,-4.2422,-4.2451,-4.2432,-4.2404,-4.241,-4.2408,-4.2412,-4.2415,-4.2418,-4.2423,-4.2361,-4.2296,-4.2432,-4.233,-4.241,-4.2412,-4.2444,-4.2443,-4.2711,-4.2448,-4.2447,-4.2447,-4.2447,0,-4.2598,-4.2659,-4.2564,-4.26,-4.2665,-4.2585,-4.2653,-4.2623,-4.26,-4.263,-4.2542,-4.2573,-4.2487,-4.2509,-4.2461,-4.2521,-4.2522,-4.2501,-4.2488,-4.251,-4.2513,-4.2515,-4.2502,-4.2453,-4.2452,-4.2451,-4.245,0,-4.2825,-4.2763,-4.282,-4.2768,-4.2756,-4.2807,-4.2763,-4.2795,-4.2754,-4.2792,-4.2797,-4.2733,-4.2754,-4.2692,-4.2704,-4.2671,-4.2759,-4.2726,-4.2766,-4.2757,-4.2841,-4.2835,-4.3121,-4.3155,-4.287,-4.2873,-4.2875,0,-4.2954,-4.2999,-4.2952,-4.2965,-4.295,-4.2972,-4.2978,-4.2901,-4.2911,-4.289,-4.2926,-4.294,-4.2946,-4.2986,-4.2941,-4.2951,-4.2918,-4.3018,-4.2919,-4.2941,-4.2922,-4.2921,-4.2926,-4.3039,-4.3043,-4.3045,-4.3048,0,-4.3192,-4.316,-4.317,-4.3172,-4.3181,-4.3179,-4.3171,-4.3187,-4.3105,-4.3121,-4.3142,-4.3147,-4.316,-4.3175,-4.3175,-4.3157,-4.3091,-4.3079,-4.3098,-4.3122,-4.3144,-4.3135,-4.2824,-4.3073,-4.307,-4.3069,-4.3067,-4.3066,-4.3374,-4.341,-4.3383,-4.3398,-4.3384,-4.3379,-4.3407,-4.3369,-4.3384,-4.3388,-4.3342,-4.3373,-4.3351,-4.3344,-4.3333,-4.3357,-4.3311,-4.3339,-4.3346,-4.3355,-4.337,-4.3139,-4.3357,-4.3356,-4.3355,-4.3354,-4.3354,0,-4.3609,-4.3586,-4.3602,-4.3593,-4.3606,-4.3541,-4.3529,-4.3545,-4.3572,-4.3557,-4.3566,-4.3591,-4.3607,-4.3564,-4.3573,-4.3601,-4.3571,-4.3607,-4.3604,-4.3602,-4.3409,-4.3392,-4.3631,-4.3631,-4.3631,-4.3631,-4.3631,-4.3631,-4.3732,-4.3789,-4.3754,-4.3804,-4.3781,-4.381,-4.3809,-4.3805,-4.3793,-4.3824,-4.3836,-4.3808,-4.3782,-4.379,-4.3802,-4.3789,-4.3797,-4.3844,-4.3821,-4.3642,-4.3615,-4.3589,-4.3573,-4.3846,-4.3846,-4.4012,-4.4013,-4.4015]},{"header":{"parameterUnit":"m.s-1","parameterCategory":1,"la1":30.2991,"la2":30.254,"lo1":-89.0895,"lo2":-89.0444,"dy":0.0017,"dx":0.0017,"nx":28,"ny":28,"refTime":"2025-04-16T09:00:00:Z","depth":0,"parameterNumber":3,"parameterNumberName":"V-component_of_WINDS"},"data":[0,0,0,0,0,0,0,0,0,0,0,0,0,0,0,0,0,0,0,0,0,0,0,0,0,0,0,0,0,0,0,0,0,0,0,0,0,0,0,0,0,0,0,0,0,0,0,0,0,0,0,0,0,0,0,0,0,0,0.6021,0.602,0,0.5967,0.5966,0.5966,0.5967,0.5968,0.5969,0.5969,0.591,0.5908,0.5906,0,0,0,0,0,0,0,0,0,0,0,0,0,0.6122,0.6121,0.6021,0.602,0.602,0.5967,0.5966,0.5966,0.5967,0.5968,0.5969,0.597,0.5911,0.5908,0.5905,0,0,0,0,0,0,0,0,0,0,0,0,0,0.6074,0.612,0.6021,0.6014,0.6013,0.5967,0.5966,0.5965,0.5967,0.5968,0.5969,0.597,0.5912,0.5908,0.5905,0.5861,0,0,0.5895,0.5893,0,0,0,0,0,0,0,0,0.6077,0.6071,0.6016,0.6015,0.6013,0.5975,0.598,0.593,0.5967,0.5984,0.5969,0.5971,0.593,0.5926,0.5913,0.5859,0.5856,0.5894,0.5892,0.5891,0.589,0,0,0,0,0,0,0,0.608,0.6073,0.5999,0.6015,0.6013,0.6013,0.6007,0.5971,0.5951,0.5983,0.5983,0.5977,0.593,0.5916,0.5911,0.5855,0.5894,0.5891,0.5889,0.5888,0.5762,0.5761,0,0,0,0,0,0,0.6086,0.6076,0.6001,0.5998,0.6049,0.601,0.6004,0.5986,0.5952,0.5948,0.5976,0.5977,0.5921,0.5915,0.5909,0.5855,0.5891,0.5888,0.5886,0.5764,0.5762,0.5761,0,0,0,0,0,0,0.6088,0.6079,0.6003,0.6037,0.6027,0.6007,0.5987,0.5984,0.5971,0.5947,0.5943,0.5965,0.5922,0.5914,0.5874,0.5853,0.5886,0.5883,0.5765,0.5763,0.5761,0.5748,0,0,0,0,0,0,0.6091,0.608,0.6064,0.6036,0.6025,0.5969,0.5986,0.5983,0.5965,0.5966,0.5936,0.5932,0.5922,0.5879,0.587,0.5849,0.588,0.5767,0.5764,0.5762,0.575,0.5746,0.5742,0,0,0,0,0,0.6094,0.6061,0.6063,0.6054,0.6005,0.5968,0.5962,0.5952,0.5964,0.5947,0.5931,0.5933,0.5858,0.5874,0.5865,0.5843,0.5768,0.5765,0.5762,0.5752,0.5746,0.5742,0,0,0,0,0,0,0.6085,0.6057,0.6059,0.6016,0.5995,0.5968,0.5947,0.5947,0.5921,0.5923,0.5912,0.5905,0.5864,0.585,0.5869,0.5799,0.5814,0.5809,0.5809,0.5804,0.58,0.5804,0.5877,0,0,0,0,0,0.6078,0.6051,0.6029,0.5993,0.5982,0.5967,0.595,0.5945,0.5922,0.5912,0.5894,0.587,0.5841,0.5822,0.5794,0.5749,0.5741,0.5729,0.5725,0.5722,0.5717,0.5691,0.5685,0.5751,0.5751,0.5751,0,0,0.6063,0.6045,0.6028,0.5991,0.5973,0.5945,0.5959,0.5928,0.5907,0.5907,0.5868,0.5854,0.5827,0.5783,0.5763,0.577,0.5698,0.5718,0.5716,0.5712,0.5687,0.5681,0.5676,0.5749,0.5749,0.575,0,0,0.6021,0.6005,0.5973,0.5956,0.5931,0.5921,0.5913,0.5887,0.5878,0.5839,0.5839,0.5813,0.5764,0.5744,0.5728,0.568,0.568,0.5672,0.565,0.5625,0.562,0.5615,0.5597,0.559,0.5667,0.5667,0.5667,0,0.6005,0.5963,0.5957,0.5926,0.5909,0.5911,0.5878,0.5861,0.5827,0.5815,0.5824,0.5762,0.5744,0.5696,0.5685,0.5672,0.5662,0.5674,0.5621,0.5616,0.5612,0.5594,0.5588,0.5666,0.5666,0.5666,0.5666,0,0.5944,0.5916,0.5893,0.5862,0.5843,0.5811,0.5799,0.578,0.5778,0.5766,0.5726,0.5705,0.5673,0.5661,0.5658,0.5612,0.5617,0.5624,0.5638,0.5605,0.5588,0.5581,0.5665,0.5665,0.5665,0.5666,0,0,0.5892,0.5859,0.5851,0.5837,0.5809,0.5786,0.5755,0.5725,0.5709,0.5686,0.5658,0.5617,0.5623,0.5605,0.5599,0.5578,0.554,0.5587,0.5586,0.5578,0.5488,0.5482,0.5474,0.5541,0.554,0.5539,0.549,0,0.5846,0.5792,0.5786,0.5736,0.5709,0.5711,0.5684,0.5663,0.5652,0.5627,0.5615,0.5585,0.5597,0.5585,0.5564,0.5549,0.5522,0.5553,0.5514,0.5512,0.5519,0.5466,0.5459,0.5413,0.5483,0.5482,0.5481,0,0.5785,0.5761,0.571,0.5687,0.5675,0.5651,0.5623,0.5599,0.5576,0.557,0.555,0.5548,0.5514,0.5532,0.5485,0.5507,0.5491,0.5481,0.5479,0.5473,0.5493,0.5457,0.5399,0.5391,0.5471,0.5472,0.5473,0,0.575,0.5706,0.5669,0.5658,0.563,0.5613,0.56,0.5578,0.5561,0.5536,0.5525,0.5496,0.548,0.5458,0.5447,0.5462,0.5401,0.5418,0.5393,0.5393,0.5378,0.5379,0.5315,0.5371,0.5371,0.5372,0.5372,0,0.5698,0.5666,0.5654,0.5631,0.5595,0.5589,0.5553,0.5541,0.5522,0.5496,0.5496,0.5472,0.5461,0.5434,0.5426,0.5388,0.5381,0.5374,0.5372,0.5373,0.5373,0.536,0.5363,0.537,0.537,0.537,0.5371,0,0.5652,0.5643,0.5603,0.5581,0.5575,0.5549,0.553,0.5507,0.5498,0.5465,0.5457,0.5441,0.541,0.5399,0.536,0.5355,0.5311,0.5312,0.5319,0.5317,0.5293,0.5295,0.5217,0.5206,0.5271,0.527,0.527,0,0.5619,0.5595,0.557,0.5554,0.5541,0.5514,0.5497,0.549,0.5472,0.5444,0.5425,0.5395,0.537,0.532,0.5304,0.5275,0.5275,0.525,0.527,0.5272,0.5272,0.5273,0.527,0.5245,0.5244,0.5244,0.5243,0,0.556,0.5557,0.5532,0.5506,0.5486,0.5465,0.5444,0.543,0.542,0.5399,0.5368,0.5349,0.5312,0.5281,0.5251,0.5237,0.5238,0.5238,0.523,0.5229,0.5234,0.523,0.5306,0.5239,0.5239,0.5239,0.524,0.524,0.5518,0.5496,0.5476,0.5449,0.5433,0.5414,0.5392,0.5381,0.5355,0.5324,0.5322,0.5288,0.5266,0.5227,0.5212,0.5185,0.5191,0.5181,0.5178,0.5175,0.5172,0.524,0.518,0.518,0.518,0.518,0.518,0,0.5458,0.5445,0.5421,0.5392,0.5371,0.5376,0.5354,0.5335,0.5306,0.5286,0.5262,0.5227,0.5197,0.518,0.5151,0.5132,0.5132,0.5125,0.5125,0.5121,0.5169,0.5178,0.5125,0.5125,0.5125,0.5125,0.5125,0.5125,0.5424,0.5387,0.5382,0.5338,0.5325,0.5293,0.528,0.5262,0.5246,0.5207,0.5183,0.5173,0.5154,0.5123,0.5097,0.5092,0.508,0.5072,0.5068,0.5112,0.5118,0.5123,0.5131,0.507,0.507,0.5023,0.5022,0.5022]}]]